Location: Unspecified
(52.0178°N, 0.0000°E)
Time: 22:13:26
(UTC+00:00)

ISS - Visible Passes

Search period start: 26 May 2019 00:00
Search period end: 05 June 2019 00:00
Orbit: 408 x 418 km, 51.6° (Epoch: 27 May)

Date Brightness Start Highest point End Pass type
(mag) Time Alt. Az. Time Alt. Az. Time Alt. Az.
26 May -3.7 22:11:59 10° W 22:15:18 59° SSW 22:17:12 23° SE visible
26 May -1.5 23:49:05 10° W 23:50:01 14° WSW 23:50:01 14° WSW visible
27 May -3.8 21:22:32 10° W 21:25:52 73° SSW 21:29:13 10° ESE visible
27 May -2.6 22:59:23 10° W 23:02:08 26° SW 23:02:08 26° SW visible
28 May -3.1 22:09:47 10° W 22:12:54 36° SSW 22:14:15 25° SSE visible
29 May -3.4 21:20:16 10° W 21:23:31 49° SSW 21:26:24 12° SE visible
29 May -1.6 22:57:44 10° WSW 22:59:13 14° SW 22:59:13 14° SW visible
30 May -2.1 22:07:46 10° W 22:10:21 21° SW 22:11:23 18° S visible
31 May -2.6 21:18:03 10° W 21:21:01 29° SSW 21:23:35 12° SSE visible
01 Jun -1.3 22:06:48 10° WSW 22:07:37 11° SW 22:08:24 10° SSW visible
02 Jun -1.6 21:16:11 10° WSW 21:18:20 16° SW 21:20:28 10° S visible
